Dewpoint
6 -1 -6 -6 -6 -6 -3 -0 4 7 9 10 11 11 11 11 9 9 8 9 9 11 11 11 12 11 11 11 9 7 10 11 11 11 9 9 10 11 11 12 11 10 10
5 -3 -6 -6 -8 -7 -4 1 4 7 9 10 11 11 11 11 10 9 9 10 11 12 11 12 12 11 11 9 8 5 5 8 9 9 8 9 11 12 12 12 11 11 11
0 -5 -6 -4 -4 -4 -3 2 6 7 9 9 10 10 11 11 11 9 10 11 11 12 12 12 11 10 9 9 8 6 4 8 8 9 10 11 11 12 12 9 9 8 8
-1 -6 -5 -3 -2 -3 -1 4 6 8 9 8 8 9 11 12 11 10 10 11 12 12 12 11 10 10 10 9 7 7 8 7 7 11 10 9 10 10 8 7 7 8 8
4 -6 -4 -3 -3 -4 -1 3 6 7 7 7 8 9 11 12 11 11 11 11 11 12 13 12 11 11 10 8 5 2 6 8 11 12 10 8 8 8 8 8 8 9 8
6 -4 -4 -3 -3 -5 -3 2 5 6 6 7 9 11 12 12 11 11 10 7 6 6 9 11 12 11 10 8 5 4 6 10 11 12 11 8 6 9 9 10 10 10 10
6 2 -4 -4 -2 -4 -5 -1 4 6 6 5 9 11 12 12 12 11 11 5 5 3 6 7 10 10 9 8 6 4 6 10 11 12 10 8 6 10 10 10 9 8 8
6 4 -3 -4 -2 -3 -4 -3 1 5 6 5 6 10 13 13 12 11 10 8 6 4 4 6 7 9 10 9 7 3 6 10 11 12 8 5 7 10 9 9 8 8 9
8 2 -2 -4 -3 -2 -2 -3 -0 2 6 6 6 8 12 13 12 11 11 8 7 4 6 8 4 5 9 9 9 3 7 9 11 11 8 8 7 8 9 9 8 7 8
10 10 -3 -3 -4 -3 -2 -2 -1 1 5 7 6 7 10 11 12 12 11 9 7 5 6 5 5 6 7 8 9 6 5 8 10 10 8 8 8 6 8 8 8 7 7
12 12 2 -2 -2 -3 -2 -1 -0 1 4 7 7 6 8 11 12 12 12 10 8 7 6 7 7 7 7 8 8 8 2 8 9 10 9 9 5 2 8 7 6 5 6
13 14 6 -0 0 -1 -1 -1 -0 1 2 6 7 7 8 10 11 12 12 10 10 7 8 9 7 8 7 7 8 9 3 7 8 8 8 8 8 0 10 8 7 5 4
9 10 7 5 2 5 2 -0 -0 1 2 4 7 8 8 8 12 12 12 11 10 9 9 8 7 8 7 7 9 7 5 8 9 8 7 7 5 -5 9 8 6 4 2
7 7 8 11 7 9 7 5 1 1 2 3 5 8 10 10 11 12 12 12 11 10 10 8 7 8 8 8 8 4 8 7 7 7 7 7 0 -4 8 4 2 1 1
-1 6 9 11 11 10 13 6 4 4 3 4 4 6 11 11 11 12 13 12 12 11 10 9 8 8 8 7 8 5 7 7 7 7 7 6 -7 3 8 9 5 4 1
-2 1 9 11 12 13 11 11 6 5 7 10 10 10 11 12 11 11 13 12 12 11 10 9 7 8 8 8 10 5 7 8 7 7 7 -0 3 6 8 9 7 -0 -5
-3 0 4 8 11 13 12 13 11 8 11 10 12 13 13 12 13 12 12 12 12 12 11 10 9 9 8 9 9 7 7 8 7 6 6 -0 6 7 6 7 5 -0 -2
-2 -2 3 4 5 10 9 11 9 5 9 14 14 13 13 12 13 13 12 12 12 11 10 10 9 9 9 10 9 7 7 8 6 7 7 4 4 6 7 4 5 3 1
-3 -3 -2 -2 2 6 6 6 5 7 4 8 15 14 13 13 13 13 12 12 12 12 11 11 10 9 9 10 9 8 8 8 6 8 7 7 3 3 4 4 4 0 -2
-4 -4 -3 -3 -3 -0 6 9 11 11 10 7 11 14 14 13 13 13 13 13 13 12 12 11 10 10 9 10 9 7 8 7 6 7 7 6 5 6 3 1 0 -1 -7
-2 -0 -1 -4 -4 -2 1 8 11 13 9 11 11 13 14 14 12 13 13 13 13 12 12 11 10 9 9 10 10 7 8 7 7 6 7 7 7 6 5 1 -2 -5 -7
2 3 3 5 6 6 6 3 7 11 13 12 12 13 13 14 13 13 13 13 12 12 12 11 11 10 10 9 9 8 8 7 7 6 7 7 7 7 6 6 6 -6 -4
4 6 8 9 9 8 8 8 7 10 13 13 13 13 12 13 13 13 12 12 12 11 11 11 11 11 10 9 10 7 8 8 7 7 6 6 6 5 7 7 6 4 5
4 7 9 11 10 9 9 9 9 10 12 13 13 12 12 14 13 13 12 12 12 12 11 11 11 9 10 8 10 8 7 7 8 8 7 6 7 6 6 6 6 6 6
4 5 7 7 11 11 11 11 12 11 12 12 11 12 12 12 13 13 12 11 10 11 10 11 11 10 10 9 9 9 7 7 7 8 8 6 8 6 5 6 6 6 6
5 7 8 9 8 8 11 11 12 12 12 11 11 11 11 12 12 13 12 11 11 11 11 11 10 11 11 10 9 9 8 7 7 7 7 7 8 7 7 6 6 6 8
Wind_Speed
8 7 5 5 3 1 2 4 5 6 8 9 8 7 6 6 5 5 7 9 10 10 12 14 14 15 14 12 11 11 10 8 8 7 12 17 18 18 17 16 15 19 18
9 7 5 6 5 4 1 3 5 7 9 9 9 8 7 6 6 5 7 8 9 9 10 12 13 12 12 14 14 12 10 9 11 13 15 17 20 20 20 16 20 20 17
11 7 4 4 3 2 0 3 5 8 10 10 9 8 8 8 8 8 7 7 8 8 9 11 13 13 15 14 12 11 11 13 13 14 15 18 17 17 18 13 12 12 12
9 7 8 6 2 2 2 4 6 7 9 9 10 9 9 9 9 8 9 8 6 3 6 10 11 13 14 14 11 10 12 12 14 16 10 12 15 13 9 8 11 11 11
11 12 10 5 3 1 2 4 6 7 7 7 8 10 10 10 11 10 11 12 7 7 9 7 10 13 12 11 11 11 14 14 18 15 13 9 14 12 11 12 14 12 12
14 12 11 8 5 3 3 4 7 7 6 6 7 9 10 10 12 15 12 6 10 7 9 6 9 11 11 9 10 13 21 17 12 20 18 11 8 14 15 14 14 14 15
18 14 12 10 8 5 4 5 6 7 7 7 8 10 11 11 14 14 15 0 4 4 2 11 8 11 10 10 10 16 18 14 10 19 15 6 5 14 15 13 12 10 10
19 16 13 12 10 8 7 7 7 8 8 7 8 9 11 14 14 15 18 5 5 5 6 13 16 11 11 11 12 17 18 12 2 15 6 2 11 13 11 9 9 9 9
18 17 14 14 12 11 10 9 10 9 10 9 9 10 11 14 13 15 18 11 7 4 5 13 11 9 11 12 13 17 19 12 14 12 5 6 6 10 10 10 9 9 9
19 20 16 15 15 14 13 12 12 12 12 12 11 12 14 14 14 16 20 12 13 5 13 12 12 11 11 13 15 16 22 13 8 10 7 4 8 12 13 11 10 10 9
19 21 19 18 18 17 16 15 15 15 16 15 15 16 15 16 17 19 20 16 19 10 13 11 11 11 11 14 16 17 22 15 3 17 5 4 2 10 13 12 11 10 9
21 23 20 20 19 19 19 19 19 18 19 20 20 20 19 18 19 21 22 20 22 15 12 11 12 12 12 18 18 18 23 14 7 10 8 7 7 10 13 13 11 10 9
23 20 20 21 22 21 21 22 22 22 22 23 23 23 22 20 20 20 21 22 23 18 16 16 16 16 17 20 20 17 21 12 14 10 9 8 10 12 15 13 13 12 12
23 23 21 21 22 22 24 25 23 24 24 25 25 24 23 24 24 24 26 24 24 24 22 20 20 21 19 17 19 20 19 16 14 13 11 10 12 14 14 15 14 14 14
20 20 25 23 24 24 23 26 26 26 25 24 24 25 26 25 27 28 26 27 27 27 26 26 24 23 21 19 18 24 21 18 17 14 13 13 15 15 15 15 14 14 12
21 19 18 22 25 25 24 24 25 27 28 27 25 24 25 29 27 31 31 28 26 25 23 28 26 23 20 24 27 23 23 15 13 15 13 17 16 15 16 15 14 14 13
25 28 25 23 26 26 27 25 28 27 27 28 27 28 28 28 30 28 28 30 28 29 28 24 23 18 21 24 27 25 25 18 15 15 13 19 19 15 16 14 14 15 14
23 26 24 23 23 27 26 28 28 27 28 29 29 28 33 30 33 31 29 29 29 30 29 28 30 27 26 25 26 29 25 22 22 15 13 14 20 19 19 15 15 15 14
24 18 17 18 14 24 24 28 28 27 30 33 30 31 35 34 32 32 33 31 30 32 31 32 30 24 30 29 30 29 25 24 24 17 15 12 17 19 20 19 16 16 15
15 14 16 18 21 15 24 29 29 30 29 30 35 33 39 35 34 32 32 31 31 28 30 31 26 29 24 36 30 32 24 25 26 23 19 14 14 13 15 19 19 18 16
10 12 17 23 25 28 26 28 32 32 34 34 33 38 28 31 31 33 34 33 31 31 29 35 26 30 30 26 27 29 26 27 22 25 23 19 19 15 11 15 13 17 16
8 10 16 18 21 25 26 31 32 32 31 37 34 28 37 29 29 29 35 35 32 33 33 30 36 34 36 33 32 33 26 27 26 26 25 23 24 19 15 13 13 18 13
8 10 11 15 18 21 23 23 27 29 32 34 34 30 31 39 35 32 33 32 33 35 36 34 36 40 41 41 33 40 22 16 32 27 29 28 24 23 20 17 11 15 11
9 5 11 10 11 14 20 23 29 35 36 39 37 31 31 35 30 30 29 30 32 36 38 40 37 36 41 47 39 43 32 33 35 25 28 32 24 25 25 23 19 17 17
4 8 7 11 6 11 15 24 22 32 34 37 33 32 34 34 36 34 30 28 31 35 32 36 36 40 40 51 46 46 38 27 37 32 30 36 22 28 25 23 20 22 20
2 4 6 11 13 14 21 21 19 28 25 27 24 27 30 33 29 29 26 27 29 31 34 38 38 45 46 52 48 49 44 35 39 32 33 36 30 28 26 25 21 19 23
Wind_Direction
119 110 84 57 57 37 225 221 202 183 176 174 178 187 198 196 186 172 160 156 160 164 158 162 164 162 159 154 151 145 152 155 168 162 141 131 119 113 111 114 118 113 115
146 128 73 49 48 24 329 203 188 176 174 171 180 189 204 200 192 181 168 164 166 169 167 165 166 161 151 147 140 140 137 149 138 133 135 126 122 118 119 116 117 114 113
131 111 74 75 64 32 13 179 175 170 168 169 175 189 207 204 190 183 175 170 173 180 180 166 169 161 151 144 140 134 133 138 131 126 131 129 125 124 126 114 116 119 118
126 123 115 106 103 55 128 153 161 164 170 170 177 192 199 197 190 184 173 177 170 175 187 172 175 159 154 145 134 124 124 124 126 120 130 141 132 130 132 124 123 126 123
150 144 132 131 92 96 140 149 155 160 170 178 185 191 196 192 182 183 178 178 184 261 178 183 178 166 159 146 135 123 125 135 125 123 137 138 136 130 132 130 126 128 130
159 161 149 155 130 129 155 162 158 162 174 179 191 196 195 192 185 194 188 122 297 181 273 355 178 175 164 157 135 127 128 142 142 133 143 118 124 137 135 133 131 131 130
170 185 175 173 168 140 161 174 174 175 184 186 191 198 200 197 201 199 174 227 316 323 81 163 185 179 180 170 141 135 140 148 159 147 147 134 177 142 141 140 143 140 138
188 198 192 188 184 177 169 185 186 192 197 194 195 203 204 206 211 203 204 264 276 223 275 167 176 184 198 184 155 146 155 150 53 151 120 78 161 153 158 156 157 155 155
197 213 203 201 199 198 192 191 199 202 208 201 200 207 210 218 214 216 209 233 250 230 186 159 177 185 200 192 168 155 161 134 125 164 195 200 209 191 176 170 171 171 170
205 221 221 209 212 212 208 205 204 208 213 210 206 211 210 219 222 218 219 239 206 224 179 201 203 189 205 202 178 163 166 140 111 177 191 200 203 206 192 185 187 188 190
204 224 225 225 216 219 217 215 212 211 216 213 212 216 216 218 218 221 223 232 213 211 211 206 207 208 203 208 190 170 164 150 92 183 172 197 206 210 185 189 196 199 204
213 217 223 231 230 222 220 220 219 217 219 216 214 218 216 219 223 224 223 223 219 221 215 206 214 196 195 200 195 175 165 141 207 202 211 226 236 234 175 185 194 204 212
219 226 229 230 235 228 224 228 222 221 221 221 220 222 218 219 222 223 228 226 220 217 215 213 204 189 198 205 192 177 159 157 200 204 210 228 243 218 173 182 192 202 203
215 219 237 236 237 232 227 230 230 224 225 224 225 222 220 219 219 220 221 221 223 220 218 214 206 196 201 207 202 175 158 165 213 209 220 230 228 183 166 175 184 188 170
237 220 214 229 239 239 224 234 230 221 231 231 228 226 219 219 221 217 221 226 221 220 221 214 207 201 206 195 185 173 167 174 203 205 223 219 206 171 165 163 165 164 168
237 230 216 217 232 238 237 233 236 225 220 228 229 231 221 224 224 226 224 228 221 217 225 218 209 211 209 202 179 185 175 182 190 206 225 189 178 174 170 170 166 171 177
236 228 220 224 227 235 240 226 236 235 210 236 229 221 230 226 224 227 229 231 217 213 220 223 212 215 209 202 196 184 179 190 191 221 226 193 174 181 172 179 172 172 172
233 232 217 220 230 230 239 241 240 231 221 212 242 227 225 230 225 226 228 225 225 220 224 221 211 218 227 203 191 185 183 192 183 204 215 204 185 180 180 181 181 174 176
234 228 221 217 224 226 241 250 253 250 235 221 213 228 224 229 227 227 227 230 230 227 227 226 221 244 209 207 213 189 183 186 181 190 204 197 190 189 186 185 186 184 179
220 223 229 232 229 237 239 235 241 250 249 242 223 222 233 230 226 226 227 228 231 233 225 217 222 212 211 208 194 186 186 189 189 185 194 206 185 190 196 193 189 187 181
254 267 270 257 251 248 235 228 225 231 247 246 241 219 231 232 228 223 230 230 231 232 234 222 215 197 200 202 191 187 188 187 186 187 197 189 180 192 207 186 203 194 185
243 259 259 259 258 250 254 239 234 230 237 249 250 229 217 233 232 224 228 235 235 228 230 223 219 207 199 191 196 184 182 188 187 193 191 187 189 185 204 210 227 205 188
247 248 264 272 254 248 248 243 232 225 227 236 239 230 220 225 230 226 227 233 233 232 227 224 220 223 206 197 199 192 174 187 181 196 193 186 199 193 199 209 215 186 209
215 259 280 257 254 250 250 230 233 228 224 230 237 234 222 215 227 226 224 233 226 224 226 226 219 221 222 195 196 200 193 190 175 180 200 194 200 197 193 203 211 189 204
255 300 304 308 245 245 240 223 239 239 238 243 243 240 231 225 227 228 233 231 229 229 228 217 231 234 211 204 197 190 197 197 189 181 177 191 194 204 198 206 210 204 200
8 316 301 310 309 264 243 238 233 237 242 240 236 234 228 224 226 224 221 228 234 229 227 231 235 227 226 212 200 199 194 195 192 192 187 192 192 196 195 201 208 208 207
Height
1483 1484 1487 1488 1489 1490 1491 1492 1494 1497 1499 1501 1503 1505 1507 1510 1512 1514 1516 1518 1519 1521 1522 1523 1525 1527 1529 1532 1534 1535 1537 1538 1539 1540 1541 1542 1543 1544 1547 1548 1549 1550 1552
1481 1485 1487 1487 1488 1489 1490 1492 1494 1496 1499 1501 1503 1505 1508 1510 1512 1514 1517 1519 1522 1522 1523 1525 1526 1529 1531 1532 1535 1536 1538 1541 1541 1542 1543 1543 1544 1546 1548 1550 1551 1552 1554
1481 1484 1487 1488 1489 1489 1490 1492 1494 1496 1498 1500 1503 1506 1508 1511 1513 1515 1518 1520 1522 1524 1525 1528 1528 1530 1531 1534 1537 1538 1538 1541 1542 1542 1543 1545 1547 1548 1550 1552 1553 1555 1556
1481 1485 1487 1488 1489 1489 1490 1492 1494 1496 1498 1500 1503 1506 1508 1511 1514 1517 1518 1520 1524 1528 1529 1528 1530 1532 1533 1535 1536 1538 1540 1542 1542 1543 1545 1547 1548 1551 1552 1553 1555 1556 1557
1482 1484 1486 1488 1489 1490 1490 1491 1494 1495 1498 1501 1503 1506 1508 1511 1514 1517 1518 1520 1524 1526 1527 1529 1532 1533 1535 1536 1537 1539 1542 1543 1545 1544 1546 1547 1548 1551 1553 1554 1555 1557 1558
1481 1482 1485 1487 1489 1490 1491 1492 1493 1496 1498 1501 1503 1506 1509 1512 1514 1515 1518 1522 1523 1527 1530 1520 1533 1534 1535 1538 1538 1539 1541 1544 1547 1546 1545 1547 1550 1552 1553 1556 1557 1558 1560
1479 1481 1483 1486 1488 1489 1491 1492 1494 1496 1498 1500 1502 1506 1509 1512 1514 1516 1518 1520 1523 1524 1526 1527 1533 1535 1536 1539 1539 1541 1543 1545 1546 1542 1545 1548 1551 1554 1555 1557 1558 1560 1561
1478 1479 1482 1484 1487 1488 1490 1492 1494 1495 1498 1500 1502 1505 1509 1511 1514 1517 1518 1519 1523 1523 1524 1525 1530 1532 1536 1539 1539 1541 1543 1545 1546 1541 1545 1549 1552 1555 1556 1558 1560 1561 1562
1477 1478 1480 1483 1485 1487 1489 1491 1493 1495 1497 1500 1500 1503 1507 1511 1514 1517 1518 1520 1522 1524 1524 1526 1530 1531 1534 1538 1540 1541 1544 1545 1547 1546 1547 1550 1553 1555 1557 1559 1560 1561 1563
1476 1476 1478 1481 1483 1485 1487 1489 1491 1493 1495 1498 1500 1502 1505 1508 1513 1516 1517 1519 1520 1522 1525 1527 1530 1530 1535 1539 1540 1542 1544 1546 1548 1548 1547 1550 1553 1555 1557 1558 1561 1561 1563
1475 1474 1474 1477 1480 1482 1484 1487 1489 1491 1493 1496 1498 1500 1502 1506 1509 1513 1516 1518 1520 1522 1525 1529 1531 1532 1533 1539 1541 1543 1543 1545 1547 1547 1547 1549 1552 1554 1556 1558 1560 1561 1563
1470 1471 1471 1473 1476 1479 1481 1484 1486 1488 1490 1493 1495 1497 1500 1503 1506 1509 1512 1515 1518 1521 1523 1527 1530 1531 1533 1538 1542 1542 1542 1544 1546 1547 1547 1548 1552 1554 1556 1557 1559 1560 1562
1464 1466 1467 1469 1472 1475 1477 1479 1482 1485 1487 1490 1492 1494 1497 1500 1503 1507 1508 1512 1515 1518 1521 1524 1528 1529 1531 1536 1538 1540 1542 1543 1543 1546 1548 1548 1551 1554 1555 1557 1558 1560 1561
1462 1461 1462 1464 1467 1470 1473 1475 1478 1481 1483 1485 1488 1491 1494 1496 1499 1503 1505 1508 1512 1515 1517 1521 1525 1527 1529 1532 1536 1539 1540 1544 1542 1544 1547 1548 1550 1552 1555 1557 1558 1560 1561
1459 1459 1458 1460 1462 1465 1468 1470 1473 1476 1478 1482 1484 1487 1490 1492 1494 1498 1502 1504 1508 1511 1516 1518 1523 1525 1527 1529 1532 1537 1539 1543 1540 1543 1545 1547 1548 1551 1555 1557 1557 1559 1560
1455 1457 1455 1457 1458 1461 1464 1465 1467 1471 1474 1477 1480 1482 1486 1488 1490 1493 1498 1500 1505 1508 1511 1514 1519 1522 1525 1527 1527 1534 1538 1542 1536 1541 1544 1545 1547 1551 1554 1557 1557 1559 1561
1450 1451 1452 1454 1455 1457 1459 1461 1462 1466 1470 1471 1476 1479 1481 1485 1486 1489 1493 1496 1500 1504 1507 1511 1517 1520 1523 1525 1528 1532 1537 1539 1538 1539 1543 1545 1547 1551 1553 1555 1557 1558 1561
1445 1446 1447 1448 1450 1451 1453 1456 1458 1460 1464 1468 1469 1475 1476 1480 1482 1485 1488 1493 1496 1500 1503 1507 1510 1514 1520 1523 1525 1530 1534 1536 1538 1539 1541 1543 1545 1549 1552 1554 1556 1559 1560
1441 1442 1443 1445 1446 1447 1448 1450 1453 1456 1458 1461 1466 1468 1471 1474 1477 1480 1484 1488 1491 1494 1499 1502 1507 1507 1515 1521 1523 1527 1531 1533 1537 1538 1538 1541 1544 1547 1550 1552 1555 1558 1560
1432 1434 1436 1439 1442 1446 1446 1445 1447 1449 1452 1454 1458 1462 1464 1470 1473 1475 1479 1483 1486 1489 1494 1498 1503 1508 1510 1517 1521 1526 1529 1531 1535 1539 1539 1541 1543 1546 1549 1551 1554 1557 1559
1431 1433 1435 1437 1439 1441 1443 1442 1443 1442 1445 1447 1450 1457 1458 1463 1467 1471 1473 1478 1481 1483 1487 1493 1498 1502 1508 1513 1518 1524 1528 1529 1533 1537 1539 1540 1542 1545 1547 1550 1554 1556 1558
1430 1432 1435 1435 1435 1435 1435 1436 1438 1440 1440 1439 1442 1449 1456 1456 1461 1464 1467 1471 1476 1478 1481 1488 1492 1496 1503 1506 1512 1518 1524 1529 1530 1535 1538 1540 1541 1544 1545 1549 1552 1555 1557
1429 1430 1431 1431 1429 1429 1429 1431 1433 1435 1435 1435 1436 1442 1447 1450 1455 1457 1461 1466 1469 1472 1475 1478 1485 1490 1494 1500 1506 1511 1516 1519 1524 1531 1534 1537 1539 1542 1544 1546 1550 1552 1555
1426 1427 1427 1426 1425 1425 1424 1425 1425 1426 1428 1429 1432 1437 1443 1446 1447 1451 1456 1459 1462 1465 1469 1473 1477 1483 1489 1493 1498 1506 1510 1511 1515 1525 1530 1534 1537 1539 1543 1546 1549 1552 1556
1423 1424 1424 1421 1421 1421 1419 1421 1421 1422 1424 1425 1429 1432 1436 1440 1443 1446 1450 1453 1456 1459 1462 1466 1471 1475 1479 1485 1488 1496 1505 1508 1513 1516 1522 1528 1532 1536 1540 1543 1547 1550 1553
1421 1421 1421 1420 1417 1416 1414 1416 1416 1416 1418 1421 1423 1425 1428 1433 1437 1440 1444 1447 1450 1454 1457 1460 1464 1466 1469 1476 1483 1488 1495 1500 1506 1511 1517 1523 1526 1532 1536 1541 1543 1547 1550